Flag for Canada Weather past 2 weeks in Dawson Creek, British Columbia, Canada

Now
36 °F

Partly sunny.


Feels Like: 27 °F
Forecast: 23 / 36 °F
Wind: 13 mph from Northwest

Location: Dawson Creek Airport


UV Index: 3 (Moderate)

Visibility: 9 mi


Pressure: 29.80 "Hg

Humidity: 70%

Dew point: 27 °F

Location of Dawson CreekLocation

Historic Weather in Dawson Creek

°F

Dawson Creek temperature yesterday

Maximum temperature yesterday: 39 °F (at 12:00 AM)
Minimum temperature yesterday: 32 °F (at 7:57 AM)
Average temperature yesterday: 36 °F

Past Weeks' High & Low Weather Summary

 TemperatureHumidityPressure
High57 °F (Apr 21, 5:00 PM)100% (Apr 11, 3:00 AM)30.43 "Hg (Apr 11, 3:00 AM)
Low16 °F (Apr 12, 3:00 AM)21% (Apr 14, 12:00 PM)29.59 "Hg (Apr 22, 4:00 PM)
Average36 °F66%29.94 "Hg
* Reported Apr 9 9:00 AM — Apr 24 9:00 AM, Dawson Creek, Weather by CustomWeather, © 2014

Note: Actual official high and low records may vary slightly from our data, if they occured in-between our weather recording intervals... More about our weather records

Advertising

Historic Weather Conditions — Data for Previous 24 hours

 ConditionsComfort  
Time TempWeatherWind HumidityBarometerVisibility
9:00 AM
Apr 24
34 °FPassing clouds.8 mph81%29.80 "Hg9 mi
8:00 AM32 °FPassing clouds.10 mph80%29.81 "Hg9 mi
7:00 AM30 °FSunny.9 mph86%29.82 "Hg9 mi
6:00 AM28 °FPassing clouds.9 mph93%29.82 "Hg9 mi
5:00 AM30 °FPassing clouds.12 mph86%29.80 "Hg9 mi
4:00 AM30 °FOvercast.6 mph86%29.80 "Hg9 mi
3:00 AM28 °FPassing clouds.8 mph93%29.80 "Hg9 mi
2:00 AM28 °FPassing clouds.8 mph93%29.79 "Hg9 mi
1:00 AM30 °FPassing clouds.6 mph86%29.80 "Hg9 mi
12:00 AM32 °FClear.12 mph87%29.79 "Hg9 mi
11:00 PM
Apr 23
32 °FPassing clouds.7 mph93%29.79 "Hg9 mi
10:00 PM34 °FPassing clouds.10 mph81%29.79 "Hg9 mi
9:00 PM34 °FOvercast.12 mph87%29.78 "Hg9 mi
8:00 PM34 °FMostly cloudy.10 mph87%29.78 "Hg9 mi
7:00 PM36 °FScattered clouds.13 mph81%29.76 "Hg9 mi
6:00 PM36 °FCloudy.10 mph87%29.76 "Hg9 mi
5:50 PM36 °FMostly cloudy.10 mph87%29.75 "Hg9 mi
5:00 PM36 °FLight rain. Broken clouds.16 mph81%29.74 "Hg9 mi
4:00 PM37 °FPartly sunny.14 mph81%29.72 "Hg9 mi
3:00 PM37 °FLight rain. Broken clouds.14 mph87%29.70 "Hg9 mi
2:01 PM36 °FLight snow. Cloudy.17 mph100%29.69 "Hg9 mi
1:57 PM36 °FLight mixture of precip. More clouds than sun.17 mph100%29.69 "Hg9 mi
1:00 PM36 °FLight rain. Mostly cloudy.15 mph100%29.67 "Hg9 mi
12:00 PM36 °FLight rain. Mostly cloudy.16 mph100%29.65 "Hg8 mi
11:00 AM36 °FLight rain. More clouds than sun.13 mph100%29.63 "Hg9 mi
10:00 AM34 °FLight snow. More clouds than sun.8 mph100%29.63 "Hg3 mi
Weather by CustomWeather, © 2014

See weather overview